Terminal Aerodrome Forecast
Issued by NWS

Home | Current Version | Previous Version | Text Only | Print | Product List | Glossary On
Versions: 1 2 3 4 5 6 7 8 9 10 11 12 13 14 15 16 17 18 19 20 21 22 23 24 25 26 27 28 29 30 31 32 33 34
000
FTUS45 KBOI 271140
TAFMYL
TAF
KMYL 271140Z 2712/2812 VRB03KT P6SM BKN070
     FM272000 27006KT P6SM VCTS BKN060CB
      TEMPO 2721/2724 VRB10G20KT -TSRA BKN070CB
     FM280300 34006KT P6SM VCSH BKN080=

USA.gov is the U.S. government's official web portal to all federal, state and local government web resources and services.